Weather History for KMOD - October, 2013

Change the Weather History Date:

Thursday, October 3, 2013

  Actual Average Record
Temperature  
Mean Temperature 65 °F -  
Max Temperature 75 °F 84 °F 99 °F (1980)
Min Temperature 55 °F 56 °F 40 °F (1950)
Degree Days  
Heating Degree Days 0 0  
Month to date heating degree days 0 0  
Since 1 July heating degree days 2 3  
Cooling Degree Days 0 5  
Month to date cooling degree days 6 17  
Year to date cooling degree days 1712 1629  
Growing Degree Days 15 (Base 50)    
Moisture  
Dew Point 34 °F    
Average Humidity 37    
Maximum Humidity 53    
Minimum Humidity 20    
Precipitation  
Precipitation 0.00 in 0.01 in 0.25 in (1981)
Month to date precipitation 0.00 0.04  
Year to date precipitation 3.34 9.07  
Since 1 July precipitation 0.13 0.32  
Snow  
Snow 0.00 in - - ()
Month to date snowfall 0.0  
Since 1 July snowfall 0.0  
Since 1 September snowfall 0.0  
Snow Depth -    
Sea Level Pressure  
Sea Level Pressure 29.96 in    
Wind  
Wind Speed 14 mph (NW)    
Max Wind Speed 28 mph    
Max Gust Speed 37 mph    
Visibility 10 miles    
Events      
T = Trace of Precipitation, MM = Missing Value Source: NWS Daily Summary

Daily Weather History Graph

Daily Weather History Graph

Search for Another Location

Airport or City:

Trip Planner

Search our weather history database for the weather conditions in past years. The results will help you decide how hot, cold, wet, or windy it might be!

Date:

Astronomy

Oct. 03, 2013 Rise Set
Actual Time 7:01 AM PDT 6:43 PM PDT
Civil Twilight 6:35 AM PDT 7:09 PM PDT
Nautical Twilight 6:04 AM PDT 7:39 PM PDT
Astronomical Twilight 5:34 AM PDT 8:10 PM PDT
Moon 5:41 AM PDT (10/3) 5:54 PM PDT (10/3)
Length of Visible Light 12h 34m
Length of Day
11h 41m
Waning Crescent, 2% of the Moon is Illuminated
Oct 3
Waning Crescent
Oct 4
New
Oct 11
First Quarter
Oct 18
Full
Oct 26
Last Quarter

Hourly Weather History & Observations

Time (PDT) Temp. Dew Point Humidity Pressure Visibility Wind Dir Wind Speed Gust Speed Precip Events Conditions
12:53 AM 59.0 °F 42.1 °F 53% 29.95 in 10.0 mi North 5.8 mph - N/A   Clear
1:53 AM 61.0 °F 39.0 °F 44% 29.96 in 10.0 mi NW 13.8 mph - N/A   Clear
2:53 AM 59.0 °F 37.9 °F 46% 29.96 in 10.0 mi WNW 15.0 mph - N/A   Clear
3:53 AM 59.0 °F 37.0 °F 44% 29.97 in 10.0 mi WNW 16.1 mph - N/A   Clear
4:53 AM 57.9 °F 37.0 °F 46% 29.98 in 10.0 mi NW 13.8 mph - N/A   Clear
5:53 AM 57.0 °F 37.0 °F 47% 29.99 in 10.0 mi NW 13.8 mph - N/A   Clear
6:53 AM 55.9 °F 37.9 °F 51% 30.00 in 10.0 mi WNW 13.8 mph - N/A   Clear
7:53 AM 55.9 °F 37.0 °F 49% 30.00 in 10.0 mi WNW 13.8 mph - N/A   Clear
8:53 AM 60.1 °F 36.0 °F 41% 30.02 in 10.0 mi NW 19.6 mph 28.8 mph N/A   Clear
9:53 AM 63.0 °F 35.1 °F 35% 30.02 in 10.0 mi NW 20.7 mph 28.8 mph N/A   Clear
10:53 AM 66.9 °F 34.0 °F 30% 30.01 in 8.0 mi NW 21.9 mph 34.5 mph N/A   Clear
11:53 AM 68.0 °F 33.1 °F 27% 29.99 in 10.0 mi NNW 25.3 mph 31.1 mph N/A   Clear
12:53 PM 72.0 °F 33.1 °F 24% 29.97 in 8.0 mi WNW 20.7 mph 32.2 mph N/A   Clear
1:53 PM 72.0 °F 32.0 °F 23% 29.95 in 10.0 mi WNW 24.2 mph 29.9 mph N/A   Clear
2:53 PM 75.0 °F 32.0 °F 21% 29.94 in 10.0 mi NW 19.6 mph 28.8 mph N/A   Clear
3:53 PM 73.9 °F 30.0 °F 20% 29.93 in 10.0 mi NNW 16.1 mph 24.2 mph N/A   Clear
4:53 PM 73.9 °F 30.0 °F 20% 29.91 in 10.0 mi NW 16.1 mph 24.2 mph N/A   Clear
5:53 PM 73.0 °F 30.0 °F 20% 29.90 in 10.0 mi NW 17.3 mph 24.2 mph N/A   Clear
6:53 PM 70.0 °F 30.0 °F 23% 29.90 in 10.0 mi WNW 10.4 mph - N/A   Clear
7:53 PM 66.9 °F 32.0 °F 27% 29.90 in 10.0 mi WNW 13.8 mph - N/A   Clear
9:53 PM 64.0 °F 32.0 °F 30% 29.90 in 10.0 mi WNW 11.5 mph - N/A   Clear
10:53 PM 62.1 °F 32.0 °F 32% 29.91 in 10.0 mi West 10.4 mph - N/A   Clear
11:53 PM 61.0 °F 30.9 °F 32% 29.92 in 10.0 mi West 11.5 mph - N/A   Clear